Kezdőlap
METAR-TAF:

METAR-TAF

Repülőterek :

Willmar Municipal Airport (John L. Rice Field)

Willmar, Minnesota, Amerikai Egyesült Államok

földrajzi szélesség: 45-07N, földrajzi hosszúság: 095-05W, magasság: 344 m

Jelenlegi meteorológiai megfigyelések

A jelentés 26 perccel ezelõtt készült, 14:15 UTC
Délkeleti szél 13 kt
Hőmérséklet 23°C
Páratartalom 78%
Légköri nyomás 1016 hPa
Látótávolság: 16.1 km
Derült ég

METAR: KBDH 281415Z AUTO 14013KT 10SM CLR 23/19 A3000 RMK AO2 LTG DSNT SE

Idő: 09:41 (14:41 UTC)


TAF: hiányzik

Meteorológiai megfigyelések és előrejelzések több, mint 4000 repülőtéren (METAR és TAF jelentéseket).

A térképen piros és sárga pontok jelzik az elérhető meteorológiai állomásokat.

Mozgassa az egeret a pont fölött, hogy megjelenjen az állomás neve.

Azután kattintson az időjárási megfigyelések és előrejelzések megtekintéséhez.

A térkép megváltoztatása: kattintson a fekete keresztel jelölt zöld gombra ráközelítéshez, a vonallal jelölt zöld gombra távolításhoz, vagy a zöld nyilakra a szomszédos térképek eléréséhez.


METAR-TAF: